FDX915 RPVM-RPVI

Flight info

Callsign FDX915
Flight time 0h 29m
Altitude 14000
Route MOLOC4P MOLOC DCT CADIZ CDZ1
Aircraft B738/M-SDE2E3FGHIRWXY/LB1

Departure

Time 2026-04-24 09:38
Airport Mactan Cebu International Airport (RPVM)

Arrival

Time 2026-04-24 10:07
Airport Iloilo International Airport (RPVI)
Time Latitude Longitude Altitude Speed Heading
2026-04-24 09:24 10.31403 123.98071 36 ft 0 kts 315°
2026-04-24 09:30 10.31399 123.98076 37 ft 2 kts 313°
2026-04-24 09:30 10.31388 123.98088 36 ft 2 kts 308°
2026-04-24 09:31 10.31379 123.98102 35 ft 2 kts 301°
2026-04-24 09:31 10.31371 123.98116 34 ft 2 kts 289°
2026-04-24 09:31 10.31367 123.98133 38 ft 2 kts 270°
2026-04-24 09:31 10.31370 123.98149 38 ft 2 kts 243°
2026-04-24 09:32 10.31378 123.98162 37 ft 1 kts 225°
2026-04-24 09:32 10.31380 123.98163 37 ft 0 kts 224°
2026-04-24 09:33 10.31370 123.98154 37 ft 5 kts 224°
2026-04-24 09:34 10.31328 123.98112 38 ft 11 kts 224°
2026-04-24 09:34 10.31259 123.98041 38 ft 17 kts 225°
2026-04-24 09:34 10.31163 123.97946 36 ft 22 kts 224°
2026-04-24 09:34 10.31044 123.97827 37 ft 26 kts 225°
2026-04-24 09:35 10.30904 123.97687 37 ft 30 kts 224°
2026-04-24 09:35 10.30745 123.97528 37 ft 34 kts 224°
2026-04-24 09:35 10.30571 123.97355 38 ft 37 kts 225°
2026-04-24 09:35 10.30383 123.97165 38 ft 39 kts 224°
2026-04-24 09:36 10.30192 123.96972 37 ft 38 kts 225°
2026-04-24 09:36 10.30006 123.96785 37 ft 30 kts 225°
2026-04-24 09:36 10.29856 123.96735 37 ft 23 kts 139°
2026-04-24 09:36 10.29740 123.96853 33 ft 19 kts 127°
2026-04-24 09:37 10.29735 123.96920 32 ft 6 kts 52°
2026-04-24 09:37 10.29755 123.96941 32 ft 0 kts 44°
2026-04-24 09:37 10.29770 123.96956 32 ft 22 kts 44°
2026-04-24 09:38 10.30091 123.97278 32 ft 105 kts 45°
2026-04-24 09:38 10.30783 123.97975 93 ft 168 kts 45°
2026-04-24 09:38 10.31616 123.98856 936 ft 175 kts 47°
2026-04-24 09:38 10.32471 123.99839 1742 ft 184 kts 49°
2026-04-24 09:39 10.33379 124.00788 2527 ft 201 kts 46°
2026-04-24 09:39 10.34612 124.01604 2701 ft 229 kts 15°
2026-04-24 09:39 10.36243 124.01466 3086 ft 247 kts 346°
2026-04-24 09:39 10.37959 124.00911 3317 ft 269 kts 343°
2026-04-24 09:40 10.39761 124.00307 3999 ft 274 kts 343°
2026-04-24 09:40 10.41574 123.99708 4851 ft 274 kts 344°
2026-04-24 09:40 10.43405 123.99117 5617 ft 278 kts 344°
2026-04-24 09:40 10.45265 123.98530 6376 ft 281 kts 345°
2026-04-24 09:41 10.47145 123.97945 7097 ft 284 kts 345°
2026-04-24 09:41 10.49052 123.97357 7783 ft 289 kts 345°
2026-04-24 09:41 10.50985 123.96764 8489 ft 291 kts 345°
2026-04-24 09:41 10.52937 123.96168 9209 ft 295 kts 345°
2026-04-24 09:42 10.54911 123.95566 9922 ft 298 kts 345°
2026-04-24 09:42 10.56919 123.94955 10411 ft 309 kts 345°
2026-04-24 09:42 10.59024 123.94315 10787 ft 321 kts 345°
2026-04-24 09:42 10.61182 123.93658 11352 ft 326 kts 345°
2026-04-24 09:43 10.63367 123.92992 11993 ft 329 kts 343°
2026-04-24 09:43 10.65428 123.91971 12567 ft 335 kts 322°
2026-04-24 09:43 10.67074 123.90277 13199 ft 339 kts 311°
2026-04-24 09:43 10.68609 123.88449 13756 ft 341 kts 310°
2026-04-24 09:44 10.70159 123.86570 13847 ft 355 kts 310°
2026-04-24 09:44 10.71789 123.84604 13864 ft 371 kts 311°
2026-04-24 09:44 10.73471 123.82593 13870 ft 375 kts 311°
2026-04-24 09:44 10.75169 123.80577 13858 ft 375 kts 311°
2026-04-24 09:45 10.76868 123.78567 13857 ft 374 kts 311°
2026-04-24 09:45 10.78567 123.76561 13855 ft 374 kts 311°
2026-04-24 09:45 10.80265 123.74556 13856 ft 374 kts 311°
2026-04-24 09:45 10.81963 123.72550 13857 ft 374 kts 311°
2026-04-24 09:46 10.83661 123.70544 13856 ft 374 kts 311°
2026-04-24 09:46 10.85361 123.68535 13858 ft 375 kts 311°
2026-04-24 09:46 10.87064 123.66522 13861 ft 375 kts 311°
2026-04-24 09:46 10.88767 123.64508 13855 ft 375 kts 311°
2026-04-24 09:47 10.90467 123.62497 13856 ft 375 kts 311°
2026-04-24 09:47 10.92167 123.60485 13859 ft 375 kts 311°
2026-04-24 09:47 10.93866 123.58475 13860 ft 375 kts 311°
2026-04-24 09:47 10.95566 123.56462 13863 ft 375 kts 311°
2026-04-24 09:48 10.97265 123.54452 13859 ft 374 kts 311°
2026-04-24 09:48 10.98954 123.52435 13858 ft 374 kts 308°
2026-04-24 09:48 11.00202 123.50120 13866 ft 374 kts 288°
2026-04-24 09:48 11.00657 123.47520 13876 ft 374 kts 274°
2026-04-24 09:49 11.00827 123.44877 13867 ft 375 kts 273°
2026-04-24 09:49 11.00965 123.42230 13864 ft 375 kts 273°
2026-04-24 09:49 11.01119 123.39577 13860 ft 376 kts 274°
2026-04-24 09:49 11.01294 123.36916 13863 ft 376 kts 274°
2026-04-24 09:50 11.01532 123.33522 13851 ft 374 kts 274°
2026-04-24 09:50 11.01443 123.29481 13858 ft 370 kts 259°
2026-04-24 09:50 11.00868 123.26935 13868 ft 369 kts 255°
2026-04-24 09:50 11.00230 123.24381 13876 ft 375 kts 255°
2026-04-24 09:51 10.99600 123.21798 13874 ft 376 kts 256°
2026-04-24 09:51 10.99002 123.19221 13863 ft 373 kts 257°
2026-04-24 09:51 10.98433 123.16670 13848 ft 365 kts 257°
2026-04-24 09:51 10.97889 123.14191 13850 ft 354 kts 257°
2026-04-24 09:52 10.97363 123.11789 13848 ft 342 kts 257°
2026-04-24 09:52 10.96851 123.09454 13857 ft 336 kts 257°
2026-04-24 09:52 10.96343 123.07141 13741 ft 335 kts 257°
2026-04-24 09:52 10.95628 123.03886 13435 ft 332 kts 257°
2026-04-24 09:53 10.95124 123.01596 13090 ft 331 kts 257°
2026-04-24 09:53 10.94623 122.99323 12745 ft 328 kts 257°
2026-04-24 09:53 10.94041 122.97085 12415 ft 326 kts 248°
2026-04-24 09:53 10.92938 122.95089 12078 ft 323 kts 233°
2026-04-24 09:54 10.91598 122.93258 11735 ft 322 kts 231°
2026-04-24 09:54 10.90230 122.91457 11394 ft 321 kts 231°
2026-04-24 09:54 10.88864 122.89667 11066 ft 320 kts 231°
2026-04-24 09:54 10.87505 122.87878 10725 ft 319 kts 231°
2026-04-24 09:55 10.86153 122.86088 10389 ft 319 kts 231°
2026-04-24 09:55 10.84821 122.84314 10257 ft 311 kts 231°
2026-04-24 09:55 10.83527 122.82585 10117 ft 303 kts 231°
2026-04-24 09:55 10.82267 122.80898 9991 ft 296 kts 231°
2026-04-24 09:56 10.81028 122.79238 9730 ft 294 kts 231°
2026-04-24 09:56 10.79794 122.77586 9430 ft 293 kts 231°
2026-04-24 09:56 10.78567 122.75941 9130 ft 291 kts 231°
2026-04-24 09:56 10.77361 122.74325 8847 ft 290 kts 231°
2026-04-24 09:57 10.76142 122.72691 8556 ft 289 kts 231°
2026-04-24 09:57 10.74928 122.71063 8272 ft 289 kts 231°
2026-04-24 09:57 10.73717 122.69439 7975 ft 288 kts 231°
2026-04-24 09:57 10.72506 122.67816 7681 ft 288 kts 231°
2026-04-24 09:58 10.71296 122.66196 7387 ft 287 kts 231°
2026-04-24 09:58 10.70090 122.64579 7091 ft 287 kts 231°
2026-04-24 09:58 10.68883 122.62961 6770 ft 287 kts 231°
2026-04-24 09:58 10.67676 122.61345 6483 ft 287 kts 231°
2026-04-24 09:59 10.66862 122.60253 6279 ft 287 kts 232°
2026-04-24 09:59 10.65659 122.58643 5978 ft 286 kts 232°
2026-04-24 09:59 10.64073 122.56517 5594 ft 284 kts 232°
2026-04-24 09:59 10.63266 122.55437 5396 ft 284 kts 232°
2026-04-24 10:00 10.62084 122.53855 5234 ft 278 kts 232°
2026-04-24 10:00 10.60907 122.52280 4924 ft 278 kts 232°
2026-04-24 10:00 10.59792 122.50747 4833 ft 260 kts 239°
2026-04-24 10:00 10.59279 122.49071 4707 ft 241 kts 270°
2026-04-24 10:01 10.59488 122.47482 4601 ft 221 kts 289°
2026-04-24 10:01 10.60139 122.46129 4391 ft 208 kts 304°
2026-04-24 10:01 10.60895 122.44931 4279 ft 198 kts 306°
2026-04-24 10:01 10.61647 122.43763 4067 ft 197 kts 305°
2026-04-24 10:02 10.62478 122.42671 3883 ft 195 kts 324°
2026-04-24 10:02 10.63697 122.42241 3680 ft 183 kts
2026-04-24 10:02 10.64901 122.42514 3534 ft 173 kts 21°
2026-04-24 10:02 10.66010 122.42921 3304 ft 164 kts 21°
2026-04-24 10:03 10.67077 122.43322 3128 ft 161 kts 22°
2026-04-24 10:03 10.68118 122.43714 2984 ft 157 kts 22°
2026-04-24 10:03 10.69119 122.44088 2857 ft 150 kts 21°
2026-04-24 10:03 10.70091 122.44449 2668 ft 147 kts 22°
2026-04-24 10:04 10.71048 122.44804 2482 ft 146 kts 22°
2026-04-24 10:04 10.72007 122.45159 2286 ft 147 kts 21°
2026-04-24 10:04 10.72959 122.45511 2087 ft 144 kts 21°
2026-04-24 10:04 10.73906 122.45861 1912 ft 145 kts 21°
2026-04-24 10:05 10.74851 122.46211 1696 ft 142 kts 21°
2026-04-24 10:05 10.75682 122.46518 1543 ft 142 kts 21°
2026-04-24 10:05 10.76628 122.46868 1340 ft 144 kts 21°
2026-04-24 10:05 10.77551 122.47209 1150 ft 138 kts 21°
2026-04-24 10:06 10.78460 122.47546 946 ft 144 kts 21°
2026-04-24 10:06 10.80221 122.48182 612 ft 120 kts 24°
2026-04-24 10:06 10.81008 122.48504 477 ft 130 kts 20°
2026-04-24 10:07 10.81919 122.48818 267 ft 148 kts 21°
2026-04-24 10:07 10.82885 122.49179 151 ft 139 kts 22°
2026-04-24 10:07 10.83697 122.49481 139 ft 107 kts 20°
2026-04-24 10:07 10.84221 122.49669 138 ft 42 kts 13°